SCP
0 0 0 0 0 0 0 0 0 0 0 0 0 0 0 0 0 0 0 -0 0 0 1 1 0 0 0 0 -0 -0 -0 -0 -0 -0 -0 -0 -0 -0 -0 -0 0 -0 -0 -0 -0 -0 -0 -0 -0
0 0 0 0 0 0 0 0 0 0 0 0 0 0 0 0 0 0 -0 -0 0 0 1 1 0 0 0 0 0 0 -0 -0 -0 0 0 0 -0 0 0 0 -0 -0 -0 -0 -0 -0 -0 -0 -0
0 0 0 0 0 0 0 0 0 0 0 0 0 0 0 0 0 0 -0 -0 0 0 1 1 0 0 0 0 0 0 0 0 0 0 0 0 0 0 0 0 0 0 -0 -0 -0 -0 -0 -0 -0
0 0 0 0 0 0 0 0 0 0 0 0 0 0 0 0 0 0 0 0 0 0 1 1 1 1 0 0 0 0 0 0 0 0 0 0 0 0 0 0 0 0 0 -0 -0 -0 -0 -0 -0
0 0 0 0 0 0 0 0 0 0 0 0 0 0 0 0 0 0 0 -0 0 1 1 1 1 1 0 0 0 0 0 0 0 0 0 0 0 0 0 0 0 0 0 0 -0 -0 -0 -0 -0
0 0 0 0 0 0 0 0 0 0 0 0 0 0 0 0 0 0 0 0 0 1 1 1 1 1 0 0 0 0 0 0 0 0 0 0 0 0 0 0 0 0 0 0 0 -0 -0 -0 -0
0 0 0 0 0 0 0 0 0 0 0 0 0 0 0 0 0 0 0 0 0 1 1 1 1 1 1 0 0 0 0 0 0 0 0 0 0 0 0 0 0 0 0 0 0 0 0 0 0
0 0 0 0 0 0 0 0 0 0 0 0 0 0 0 0 0 0 0 0 0 1 1 1 1 1 1 0 0 0 0 0 0 0 0 0 0 0 0 0 0 0 0 0 0 0 0 0 0
0 0 0 0 0 0 0 0 0 0 0 0 0 0 0 0 0 0 0 0 1 1 1 1 1 1 1 0 0 0 0 0 0 0 0 0 0 0 0 0 0 0 0 0 0 0 0 0 0
0 0 0 0 0 0 0 0 0 0 0 0 0 0 0 0 0 0 0 0 0 1 1 1 1 1 1 1 0 0 0 0 0 0 0 0 0 0 0 0 0 0 0 0 0 0 0 0 0
0 0 0 0 0 0 0 0 0 0 0 0 0 0 0 0 0 0 0 0 0 0 0 1 1 1 0 0 0 0 0 0 0 0 0 0 0 0 0 0 0 0 0 0 0 0 0 0 0
0 0 0 0 0 0 0 0 0 0 0 0 0 0 -0 0 0 0 0 0 0 0 0 0 1 1 0 0 0 0 0 0 0 0 0 0 0 0 0 0 0 0 0 0 0 0 0 0 0
0 0 0 0 0 0 0 0 0 0 0 0 0 0 0 0 0 0 0 0 0 0 0 0 0 1 0 0 0 0 0 0 0 0 0 0 0 0 0 0 0 0 0 0 0 0 0 0 0
0 0 0 0 0 0 0 0 0 0 0 0 0 0 0 -0 -0 0 0 0 0 0 0 0 0 0 0 0 0 0 0 0 0 0 0 0 0 0 0 0 0 0 0 0 0 0 0 0 0
0 0 0 0 0 0 0 0 0 0 0 0 0 0 0 0 0 0 0 0 0 0 0 0 -0 0 0 0 0 0 0 0 0 0 0 0 0 0 0 0 0 0 0 0 0 0 0 0 0
0 0 0 0 0 0 0 0 0 0 0 0 0 0 0 0 0 0 0 -0 0 0 0 0 -0 0 0 0 0 0 0 0 0 0 0 0 0 0 0 0 0 0 0 0 0 0 0 0 0
0 0 0 0 0 0 0 0 0 0 0 0 0 0 0 0 0 0 0 0 -0 0 0 0 -0 0 0 0 0 0 0 0 0 0 0 0 0 0 0 0 0 0 0 0 0 0 0 0 0
0 0 0 0 0 0 0 0 0 0 0 -0 0 0 0 0 0 0 0 0 0 0 0 0 0 0 0 0 0 0 0 0 0 0 0 0 0 0 0 0 0 0 0 0 0 0 0 0 0
0 0 0 0 0 0 0 0 0 0 0 -0 -0 0 0 0 0 0 0 0 0 0 0 0 0 0 0 0 0 0 0 0 0 0 0 0 0 0 0 0 0 0 0 0 0 0 0 0 0
0 0 0 0 0 0 0 -0 0 0 0 -0 0 0 0 0 0 0 0 0 0 0 0 0 0 0 0 0 0 0 0 0 0 0 0 0 0 0 0 0 0 0 0 0 0 0 0 0 0
0 0 0 0 0 0 0 0 0 0 0 0 0 0 0 0 0 0 0 0 0 0 1 0 0 0 0 0 0 0 0 0 0 0 0 0 0 0 0 0 0 0 0 0 0 0 0 0 0
0 0 0 0 0 0 0 0 0 0 0 0 0 0 0 0 0 0 0 0 0 0 0 1 0 0 0 0 0 0 0 0 0 0 0 0 0 0 0 0 0 0 0 0 0 0 0 0 0
0 0 0 0 0 0 -0 0 0 0 -0 -0 -0 -0 0 0 0 0 0 0 0 0 0 1 0 0 0 0 0 0 0 0 0 0 0 0 0 0 0 0 0 0 0 0 0 0 0 0 0
-0 0 0 0 0 0 0 0 0 0 -0 -0 -0 -0 -0 0 0 0 0 0 0 0 1 0 -0 0 0 0 0 0 0 0 0 0 0 0 0 0 0 0 0 0 0 0 0 0 0 0 0
0 0 0 0 0 -0 -0 -0 0 -0 -0 -0 -0 -0 -0 0 0 0 0 0 0 0 1 0 0 0 0 0 0 0 0 0 0 0 0 0 0 0 0 0 0 0 0 0 0 0 0 0 0
0 0 0 0 0 0 0 0 0 -0 -0 -0 -0 -0 0 0 0 0 0 0 0 0 0 0 0 0 0 0 0 0 -0 0 0 0 0 0 0 0 0 0 0 0 0 0 0 0 0 0 0
0 0 0 0 0 -0 0 0 0 -0 -0 -0 -0 -0 0 0 0 0 0 0 0 0 0 0 0 0 0 0 0 0 -0 -0 0 0 0 0 0 0 0 0 0 0 0 0 0 0 0 0 0
0 0 0 0 0 0 0 0 0 -0 -0 -0 -0 -0 -0 -0 0 0 0 0 0 0 0 0 0 0 0 0 0 0 0 -0 0 0 0 0 0 0 0 0 0 0 0 0 0 0 0 0 0
0 0 0 0 0 0 0 0 0 -0 -0 -0 -0 0 -0 -0 0 0 0 0 0 0 0 0 0 0 0 0 0 0 0 0 -0 -0 0 0 0 0 0 0 0 0 0 0 0 0 0 0 0
0 0 0 0 0 0 0 0 -0 0 -0 -0 -0 -0 -0 0 0 0 0 0 0 0 0 0 0 0 0 0 0 0 0 -0 -0 -0 0 0 0 0 0 0 0 0 0 0 0 0 0 0 0
Wind_Speed_500mb
16 12 12 11 1 5 10 12 1 5 3 9 6 8 10 27 8 8 18 34 30 49 70 73 76 74 70 65 63 60 58 56 52 48 46 44 45 40 37 37 40 42 41 46 43 52 46 42 37
11 3 14 9 6 12 15 14 17 20 14 6 15 11 4 9 23 36 52 39 30 49 75 76 77 77 74 67 63 60 57 54 52 50 48 49 47 41 40 39 41 40 41 40 42 45 44 40 37
8 6 11 6 11 29 13 9 29 22 37 25 16 11 11 7 7 13 32 39 34 50 78 76 78 80 75 69 63 60 56 53 51 50 52 52 46 42 40 38 41 40 41 42 42 42 41 38 34
3 6 3 6 32 8 4 4 3 9 8 18 14 17 21 18 22 37 43 37 37 53 80 76 78 77 76 71 65 60 56 54 53 52 51 51 47 43 41 40 41 41 38 40 39 39 37 34 31
5 5 3 10 10 7 7 9 9 7 10 14 16 12 21 33 24 33 39 26 35 57 80 76 77 75 74 71 66 61 57 54 51 52 52 53 47 46 45 43 40 40 40 36 37 37 35 32 28
1 3 2 12 10 2 5 12 9 5 11 15 14 18 18 22 25 28 27 21 28 54 80 77 77 74 72 70 67 63 60 57 54 55 52 50 50 47 46 45 41 40 39 39 36 34 33 32 27
5 5 7 7 6 6 5 14 8 9 10 3 30 7 14 22 36 37 24 18 29 52 74 73 78 76 73 72 67 65 64 61 60 58 52 52 52 49 49 45 43 42 38 38 35 33 31 29 26
3 5 5 8 6 11 6 9 7 9 8 32 5 3 12 44 46 44 22 18 31 49 66 72 79 81 77 72 68 66 64 64 63 61 54 52 54 50 48 50 44 43 38 39 34 33 31 29 25
3 1 8 10 7 10 3 11 14 15 23 20 28 45 51 36 43 36 19 24 32 50 61 72 81 84 79 74 68 66 65 65 62 61 56 52 54 52 51 51 47 44 41 36 35 33 31 30 30
7 6 14 10 6 7 13 12 14 16 28 31 55 45 21 35 45 43 42 23 33 50 58 71 81 85 83 77 73 70 66 65 64 63 63 59 56 57 54 54 47 45 41 35 36 32 31 32 34
8 10 8 9 16 18 7 19 26 12 30 40 40 51 54 67 61 58 52 43 37 31 50 68 82 87 87 83 79 73 72 71 67 68 62 64 61 60 56 50 51 47 46 43 40 37 35 34 35
8 20 21 11 20 19 10 19 13 36 64 46 59 69 64 47 63 68 58 45 47 39 37 58 81 95 92 91 85 76 79 75 73 66 67 67 67 66 62 57 55 54 54 52 46 40 35 34 36
15 17 30 35 41 33 43 42 34 67 46 60 68 69 76 62 60 69 56 54 50 50 45 46 67 98 100 97 88 85 84 81 75 71 71 71 69 67 62 57 56 58 56 53 46 41 36 35 35
10 11 19 33 46 38 35 52 20 44 50 63 56 66 66 48 45 65 71 72 67 55 49 57 59 102 106 106 98 92 91 87 80 74 74 72 70 68 64 59 58 60 56 53 46 40 35 33 34
22 20 21 33 47 19 35 20 19 63 55 62 64 59 61 52 46 57 68 67 64 60 52 54 73 87 88 111 104 95 92 90 83 75 76 73 70 69 62 62 60 60 57 52 48 43 38 35 35
11 7 9 6 7 18 16 41 29 41 44 49 53 48 41 44 46 47 57 58 60 57 56 50 46 54 92 114 107 98 95 89 85 78 77 73 73 70 60 60 59 58 56 54 50 45 42 39 37
7 12 17 29 16 16 15 32 7 27 24 34 41 54 57 63 48 47 42 45 46 51 49 44 40 55 74 93 106 98 95 91 88 76 74 74 71 69 66 66 61 58 56 56 53 49 45 43 41
21 31 30 34 8 24 38 47 40 52 52 48 52 62 63 62 57 46 42 35 33 36 44 38 31 35 50 99 72 91 91 92 85 73 71 65 62 64 60 65 61 59 58 57 55 52 48 45 39
26 26 37 48 35 28 35 39 45 41 54 55 59 58 56 68 54 46 49 41 39 32 42 32 24 40 57 71 66 94 101 81 82 78 70 64 59 55 59 62 63 63 62 59 57 54 53 51 47
28 32 39 33 7 20 26 41 41 35 35 56 52 51 52 54 58 47 48 43 35 26 34 23 21 30 43 50 66 89 88 89 92 79 74 65 61 55 58 63 65 64 63 60 59 60 59 58 57
32 23 29 34 33 20 21 22 9 12 13 28 27 36 48 53 58 55 46 43 32 20 29 19 17 32 42 40 39 54 72 85 86 89 83 72 62 55 56 61 63 61 62 62 57 61 65 64 60
16 10 27 38 29 7 13 11 8 15 23 30 40 39 38 34 47 56 57 41 27 17 23 17 20 25 38 41 56 73 77 78 83 86 79 71 64 60 57 57 58 61 62 62 59 59 65 67 71
21 34 42 38 32 21 6 8 7 16 31 45 41 53 49 39 29 40 43 42 23 17 15 23 13 8 26 45 51 75 79 72 74 75 73 74 68 64 61 61 58 56 64 64 62 71 72 72 77
26 21 40 4 7 3 2 13 5 18 33 46 39 58 57 44 25 21 24 27 24 13 18 26 12 2 16 28 19 77 60 69 70 71 73 73 70 66 68 61 59 57 59 62 62 67 71 75 74
41 30 8 10 5 4 9 7 12 35 46 39 49 72 68 36 22 7 11 22 16 9 17 34 22 20 20 31 18 12 7 45 65 62 64 69 70 68 63 59 60 59 62 67 68 70 72 79 71
26 14 8 8 7 11 20 7 3 51 56 56 82 51 24 20 19 13 2 6 5 9 22 36 31 41 36 28 32 11 10 27 32 46 65 56 59 57 56 55 54 54 56 49 44 41 44 47 47
19 23 20 8 9 6 5 15 5 63 68 70 87 45 41 41 42 42 33 26 20 22 41 40 25 30 37 36 34 28 19 7 26 20 35 28 28 23 20 22 16 16 18 14 13 17 15 17 16
20 23 9 7 10 8 9 12 19 55 54 66 61 48 54 55 51 57 52 50 46 46 60 59 44 46 47 51 61 64 61 47 44 46 47 41 36 33 12 8 4 12 13 7 8 10 15 10 16
26 19 7 5 6 6 9 4 20 35 43 49 49 58 59 58 59 64 61 60 63 69 76 76 70 72 73 65 66 61 55 48 45 44 47 49 46 42 33 38 36 39 37 37 33 34 31 27 26
34 24 10 5 12 6 7 4 30 35 38 52 61 64 62 60 62 71 73 73 76 78 83 88 83 77 75 73 71 78 59 64 69 72 68 59 60 57 57 54 56 56 57 53 50 46 41 39 36
Wind_Direction_500mb
316 275 222 175 18 249 232 220 211 206 245 222 167 173 203 222 215 222 293 312 268 204 198 195 189 188 187 185 184 185 186 184 184 183 181 178 169 178 178 174 161 161 162 162 157 152 159 163 158
324 263 175 147 173 236 243 205 230 219 236 237 301 289 191 258 265 256 283 295 261 204 196 194 190 189 188 186 186 186 187 186 184 181 177 174 178 182 180 174 164 164 161 160 157 158 161 160 160
324 170 164 161 216 230 226 196 226 238 244 271 304 271 285 238 304 297 323 313 230 204 196 194 192 191 189 187 187 188 187 188 185 182 177 176 185 183 181 176 165 165 163 162 162 161 160 162 166
132 157 157 215 232 290 188 59 55 333 308 261 282 272 256 249 316 310 306 296 245 205 196 193 192 193 191 189 188 189 189 189 186 180 179 175 182 182 181 180 170 167 166 165 168 166 167 167 166
167 172 205 253 261 255 304 273 291 301 308 281 322 283 290 299 305 296 299 297 256 206 193 195 194 195 193 192 192 192 188 188 186 181 182 175 179 183 183 177 173 170 170 170 175 173 170 172 173
291 112 197 244 234 318 286 337 311 288 295 273 287 321 270 276 304 321 298 298 235 206 195 197 196 197 198 195 195 194 190 189 187 186 188 187 180 180 180 174 171 171 173 180 182 179 178 178 174
139 120 234 267 235 272 208 353 54 324 311 335 320 233 267 269 325 325 297 262 226 206 203 201 198 200 202 198 197 196 193 192 188 188 191 185 185 181 180 174 174 173 180 180 186 187 182 181 177
228 122 263 236 237 273 8 14 17 12 302 314 319 227 318 309 318 329 309 243 226 212 205 206 204 203 204 201 200 199 196 195 197 194 192 189 188 185 179 178 179 178 182 180 184 190 188 184 180
233 7 242 249 194 259 337 6 320 308 278 289 286 295 302 300 317 320 303 227 233 224 208 211 206 205 205 206 202 202 201 202 200 196 193 191 191 190 183 183 180 179 185 181 188 192 194 192 188
172 195 226 215 215 250 305 300 299 301 287 281 291 298 269 291 306 315 318 271 210 227 222 211 210 208 207 207 206 202 203 202 199 197 194 194 194 192 188 190 181 183 181 182 196 198 201 201 199
216 223 218 233 252 293 281 284 278 238 265 258 274 283 282 294 291 295 300 304 287 226 223 221 213 210 210 204 209 202 204 200 200 196 197 197 196 196 195 189 187 181 179 186 200 202 208 210 208
286 253 250 263 278 301 260 263 245 248 255 270 279 283 286 279 281 288 290 288 292 280 237 220 222 215 211 210 206 202 204 201 202 200 196 199 199 200 198 196 192 183 186 193 200 206 215 216 214
249 256 264 280 282 273 283 262 260 259 266 271 276 274 275 271 273 278 277 277 284 282 271 232 224 219 215 214 210 208 203 203 203 200 200 204 202 201 201 197 195 189 193 199 205 211 219 220 218
251 254 271 284 277 272 267 264 238 270 273 273 267 268 268 270 251 267 271 273 279 278 276 257 232 221 221 217 213 210 204 203 204 202 203 205 204 205 205 200 195 196 199 203 209 216 224 228 225
289 289 275 266 265 265 266 270 228 267 277 265 268 265 267 272 269 262 270 272 273 273 270 273 262 240 230 219 213 212 205 203 205 205 206 207 206 206 206 203 199 200 205 208 210 215 220 224 225
272 243 299 282 194 241 196 272 270 279 267 262 266 267 269 274 277 266 266 267 265 268 262 272 274 244 225 218 214 207 206 205 206 208 207 207 209 210 208 207 205 204 209 213 214 219 222 224 229
216 273 268 298 241 239 200 286 270 288 266 257 263 275 285 285 275 266 269 268 266 261 257 257 286 237 240 212 208 213 206 206 206 213 209 210 211 211 215 209 207 208 212 215 219 223 226 229 233
291 289 284 282 244 293 274 270 273 259 253 254 263 272 276 275 274 263 261 258 265 271 239 243 266 253 233 203 211 209 207 205 209 213 218 217 215 216 221 210 207 210 214 217 222 226 230 234 234
278 275 278 280 287 283 270 270 268 262 252 257 261 261 262 267 271 264 266 262 271 279 226 233 269 229 221 219 223 210 205 208 216 215 218 218 217 214 212 211 210 212 217 220 224 230 233 236 236
292 280 278 281 250 303 283 274 278 273 255 252 249 257 259 265 269 262 258 264 270 281 231 225 261 220 222 211 208 222 212 207 218 218 219 219 219 216 215 216 215 216 219 221 226 228 236 239 238
317 276 276 284 317 254 277 283 281 304 324 299 279 282 269 263 273 265 249 258 271 269 220 223 278 228 205 209 235 225 211 205 215 220 220 219 218 218 219 222 221 220 224 227 232 234 234 240 246
300 241 303 293 306 275 61 291 10 15 17 5 346 332 327 325 265 268 259 248 255 259 223 198 258 221 208 205 212 204 217 214 218 220 221 219 219 220 221 225 227 226 228 234 239 241 242 244 248
255 300 292 285 274 281 253 226 17 14 348 340 331 321 314 313 304 260 261 251 234 253 224 182 207 124 214 213 239 224 217 222 219 227 226 224 223 224 226 228 229 231 230 236 241 253 242 246 254
322 305 309 328 233 213 300 202 57 11 333 324 320 311 304 302 289 254 253 244 237 245 211 166 150 155 191 187 233 205 208 223 221 225 229 229 228 225 228 231 234 238 242 242 249 251 256 256 257
348 347 337 1 13 230 343 247 70 354 349 329 314 305 294 287 281 234 212 201 222 195 185 158 173 98 76 89 105 250 195 221 226 231 233 232 229 228 228 230 234 239 243 244 251 256 258 256 251
335 345 344 312 326 318 310 352 134 3 332 341 339 312 292 324 326 348 109 201 202 152 149 142 128 99 114 116 108 111 75 325 248 240 227 226 224 220 220 223 230 235 237 242 253 268 273 278 275
340 341 303 254 239 249 344 2 229 345 348 347 342 40 66 67 77 85 91 94 106 112 133 142 136 115 96 98 103 73 52 353 142 180 165 172 158 173 173 193 226 240 234 237 276 263 268 267 260
341 345 1 349 349 342 64 50 343 343 342 333 341 34 54 63 66 76 86 90 102 117 128 136 126 113 109 105 94 82 73 59 80 103 105 115 106 108 119 95 110 120 102 72 104 102 82 83 85
8 12 345 276 305 345 344 48 356 341 338 329 338 25 38 50 62 77 91 98 106 112 112 114 110 110 105 101 98 90 77 85 87 79 83 84 84 81 89 86 87 77 72 68 64 66 68 68 68
32 7 340 72 344 349 318 65 10 354 336 344 353 15 34 46 59 72 82 93 101 106 106 107 108 105 101 100 99 96 94 93 91 92 89 86 85 85 83 85 82 80 79 77 75 75 76 75 72
Wind_Speed_850mb
16 12 12 11 1 5 10 12 1 5 3 9 6 8 10 27 8 8 18 34 30 49 70 73 76 74 70 65 63 60 58 56 52 48 46 44 45 40 37 37 40 42 41 46 43 52 46 42 37
11 3 14 9 6 12 15 14 17 20 14 6 15 11 4 9 23 36 52 39 30 49 75 76 77 77 74 67 63 60 57 54 52 50 48 49 47 41 40 39 41 40 41 40 42 45 44 40 37
8 6 11 6 11 29 13 9 29 22 37 25 16 11 11 7 7 13 32 39 34 50 78 76 78 80 75 69 63 60 56 53 51 50 52 52 46 42 40 38 41 40 41 42 42 42 41 38 34
3 6 3 6 32 8 4 4 3 9 8 18 14 17 21 18 22 37 43 37 37 53 80 76 78 77 76 71 65 60 56 54 53 52 51 51 47 43 41 40 41 41 38 40 39 39 37 34 31
5 5 3 10 10 7 7 9 9 7 10 14 16 12 21 33 24 33 39 26 35 57 80 76 77 75 74 71 66 61 57 54 51 52 52 53 47 46 45 43 40 40 40 36 37 37 35 32 28
1 3 2 12 10 2 5 12 9 5 11 15 14 18 18 22 25 28 27 21 28 54 80 77 77 74 72 70 67 63 60 57 54 55 52 50 50 47 46 45 41 40 39 39 36 34 33 32 27
5 5 7 7 6 6 5 14 8 9 10 3 30 7 14 22 36 37 24 18 29 52 74 73 78 76 73 72 67 65 64 61 60 58 52 52 52 49 49 45 43 42 38 38 35 33 31 29 26
3 5 5 8 6 11 6 9 7 9 8 32 5 3 12 44 46 44 22 18 31 49 66 72 79 81 77 72 68 66 64 64 63 61 54 52 54 50 48 50 44 43 38 39 34 33 31 29 25
3 1 8 10 7 10 3 11 14 15 23 20 28 45 51 36 43 36 19 24 32 50 61 72 81 84 79 74 68 66 65 65 62 61 56 52 54 52 51 51 47 44 41 36 35 33 31 30 30
7 6 14 10 6 7 13 12 14 16 28 31 55 45 21 35 45 43 42 23 33 50 58 71 81 85 83 77 73 70 66 65 64 63 63 59 56 57 54 54 47 45 41 35 36 32 31 32 34
8 10 8 9 16 18 7 19 26 12 30 40 40 51 54 67 61 58 52 43 37 31 50 68 82 87 87 83 79 73 72 71 67 68 62 64 61 60 56 50 51 47 46 43 40 37 35 34 35
8 20 21 11 20 19 10 19 13 36 64 46 59 69 64 47 63 68 58 45 47 39 37 58 81 95 92 91 85 76 79 75 73 66 67 67 67 66 62 57 55 54 54 52 46 40 35 34 36
15 17 30 35 41 33 43 42 34 67 46 60 68 69 76 62 60 69 56 54 50 50 45 46 67 98 100 97 88 85 84 81 75 71 71 71 69 67 62 57 56 58 56 53 46 41 36 35 35
10 11 19 33 46 38 35 52 20 44 50 63 56 66 66 48 45 65 71 72 67 55 49 57 59 102 106 106 98 92 91 87 80 74 74 72 70 68 64 59 58 60 56 53 46 40 35 33 34
22 20 21 33 47 19 35 20 19 63 55 62 64 59 61 52 46 57 68 67 64 60 52 54 73 87 88 111 104 95 92 90 83 75 76 73 70 69 62 62 60 60 57 52 48 43 38 35 35
11 7 9 6 7 18 16 41 29 41 44 49 53 48 41 44 46 47 57 58 60 57 56 50 46 54 92 114 107 98 95 89 85 78 77 73 73 70 60 60 59 58 56 54 50 45 42 39 37
7 12 17 29 16 16 15 32 7 27 24 34 41 54 57 63 48 47 42 45 46 51 49 44 40 55 74 93 106 98 95 91 88 76 74 74 71 69 66 66 61 58 56 56 53 49 45 43 41
21 31 30 34 8 24 38 47 40 52 52 48 52 62 63 62 57 46 42 35 33 36 44 38 31 35 50 99 72 91 91 92 85 73 71 65 62 64 60 65 61 59 58 57 55 52 48 45 39
26 26 37 48 35 28 35 39 45 41 54 55 59 58 56 68 54 46 49 41 39 32 42 32 24 40 57 71 66 94 101 81 82 78 70 64 59 55 59 62 63 63 62 59 57 54 53 51 47
28 32 39 33 7 20 26 41 41 35 35 56 52 51 52 54 58 47 48 43 35 26 34 23 21 30 43 50 66 89 88 89 92 79 74 65 61 55 58 63 65 64 63 60 59 60 59 58 57
32 23 29 34 33 20 21 22 9 12 13 28 27 36 48 53 58 55 46 43 32 20 29 19 17 32 42 40 39 54 72 85 86 89 83 72 62 55 56 61 63 61 62 62 57 61 65 64 60
16 10 27 38 29 7 13 11 8 15 23 30 40 39 38 34 47 56 57 41 27 17 23 17 20 25 38 41 56 73 77 78 83 86 79 71 64 60 57 57 58 61 62 62 59 59 65 67 71
21 34 42 38 32 21 6 8 7 16 31 45 41 53 49 39 29 40 43 42 23 17 15 23 13 8 26 45 51 75 79 72 74 75 73 74 68 64 61 61 58 56 64 64 62 71 72 72 77
26 21 40 4 7 3 2 13 5 18 33 46 39 58 57 44 25 21 24 27 24 13 18 26 12 2 16 28 19 77 60 69 70 71 73 73 70 66 68 61 59 57 59 62 62 67 71 75 74
41 30 8 10 5 4 9 7 12 35 46 39 49 72 68 36 22 7 11 22 16 9 17 34 22 20 20 31 18 12 7 45 65 62 64 69 70 68 63 59 60 59 62 67 68 70 72 79 71
26 14 8 8 7 11 20 7 3 51 56 56 82 51 24 20 19 13 2 6 5 9 22 36 31 41 36 28 32 11 10 27 32 46 65 56 59 57 56 55 54 54 56 49 44 41 44 47 47
19 23 20 8 9 6 5 15 5 63 68 70 87 45 41 41 42 42 33 26 20 22 41 40 25 30 37 36 34 28 19 7 26 20 35 28 28 23 20 22 16 16 18 14 13 17 15 17 16
20 23 9 7 10 8 9 12 19 55 54 66 61 48 54 55 51 57 52 50 46 46 60 59 44 46 47 51 61 64 61 47 44 46 47 41 36 33 12 8 4 12 13 7 8 10 15 10 16
26 19 7 5 6 6 9 4 20 35 43 49 49 58 59 58 59 64 61 60 63 69 76 76 70 72 73 65 66 61 55 48 45 44 47 49 46 42 33 38 36 39 37 37 33 34 31 27 26
34 24 10 5 12 6 7 4 30 35 38 52 61 64 62 60 62 71 73 73 76 78 83 88 83 77 75 73 71 78 59 64 69 72 68 59 60 57 57 54 56 56 57 53 50 46 41 39 36
Wind_Direction_850mb
316 275 222 175 18 249 232 220 211 206 245 222 167 173 203 222 215 222 293 312 268 204 198 195 189 188 187 185 184 185 186 184 184 183 181 178 169 178 178 174 161 161 162 162 157 152 159 163 158
324 263 175 147 173 236 243 205 230 219 236 237 301 289 191 258 265 256 283 295 261 204 196 194 190 189 188 186 186 186 187 186 184 181 177 174 178 182 180 174 164 164 161 160 157 158 161 160 160
324 170 164 161 216 230 226 196 226 238 244 271 304 271 285 238 304 297 323 313 230 204 196 194 192 191 189 187 187 188 187 188 185 182 177 176 185 183 181 176 165 165 163 162 162 161 160 162 166
132 157 157 215 232 290 188 59 55 333 308 261 282 272 256 249 316 310 306 296 245 205 196 193 192 193 191 189 188 189 189 189 186 180 179 175 182 182 181 180 170 167 166 165 168 166 167 167 166
167 172 205 253 261 255 304 273 291 301 308 281 322 283 290 299 305 296 299 297 256 206 193 195 194 195 193 192 192 192 188 188 186 181 182 175 179 183 183 177 173 170 170 170 175 173 170 172 173
291 112 197 244 234 318 286 337 311 288 295 273 287 321 270 276 304 321 298 298 235 206 195 197 196 197 198 195 195 194 190 189 187 186 188 187 180 180 180 174 171 171 173 180 182 179 178 178 174
139 120 234 267 235 272 208 353 54 324 311 335 320 233 267 269 325 325 297 262 226 206 203 201 198 200 202 198 197 196 193 192 188 188 191 185 185 181 180 174 174 173 180 180 186 187 182 181 177
228 122 263 236 237 273 8 14 17 12 302 314 319 227 318 309 318 329 309 243 226 212 205 206 204 203 204 201 200 199 196 195 197 194 192 189 188 185 179 178 179 178 182 180 184 190 188 184 180
233 7 242 249 194 259 337 6 320 308 278 289 286 295 302 300 317 320 303 227 233 224 208 211 206 205 205 206 202 202 201 202 200 196 193 191 191 190 183 183 180 179 185 181 188 192 194 192 188
172 195 226 215 215 250 305 300 299 301 287 281 291 298 269 291 306 315 318 271 210 227 222 211 210 208 207 207 206 202 203 202 199 197 194 194 194 192 188 190 181 183 181 182 196 198 201 201 199
216 223 218 233 252 293 281 284 278 238 265 258 274 283 282 294 291 295 300 304 287 226 223 221 213 210 210 204 209 202 204 200 200 196 197 197 196 196 195 189 187 181 179 186 200 202 208 210 208
286 253 250 263 278 301 260 263 245 248 255 270 279 283 286 279 281 288 290 288 292 280 237 220 222 215 211 210 206 202 204 201 202 200 196 199 199 200 198 196 192 183 186 193 200 206 215 216 214
249 256 264 280 282 273 283 262 260 259 266 271 276 274 275 271 273 278 277 277 284 282 271 232 224 219 215 214 210 208 203 203 203 200 200 204 202 201 201 197 195 189 193 199 205 211 219 220 218
251 254 271 284 277 272 267 264 238 270 273 273 267 268 268 270 251 267 271 273 279 278 276 257 232 221 221 217 213 210 204 203 204 202 203 205 204 205 205 200 195 196 199 203 209 216 224 228 225
289 289 275 266 265 265 266 270 228 267 277 265 268 265 267 272 269 262 270 272 273 273 270 273 262 240 230 219 213 212 205 203 205 205 206 207 206 206 206 203 199 200 205 208 210 215 220 224 225
272 243 299 282 194 241 196 272 270 279 267 262 266 267 269 274 277 266 266 267 265 268 262 272 274 244 225 218 214 207 206 205 206 208 207 207 209 210 208 207 205 204 209 213 214 219 222 224 229
216 273 268 298 241 239 200 286 270 288 266 257 263 275 285 285 275 266 269 268 266 261 257 257 286 237 240 212 208 213 206 206 206 213 209 210 211 211 215 209 207 208 212 215 219 223 226 229 233
291 289 284 282 244 293 274 270 273 259 253 254 263 272 276 275 274 263 261 258 265 271 239 243 266 253 233 203 211 209 207 205 209 213 218 217 215 216 221 210 207 210 214 217 222 226 230 234 234
278 275 278 280 287 283 270 270 268 262 252 257 261 261 262 267 271 264 266 262 271 279 226 233 269 229 221 219 223 210 205 208 216 215 218 218 217 214 212 211 210 212 217 220 224 230 233 236 236
292 280 278 281 250 303 283 274 278 273 255 252 249 257 259 265 269 262 258 264 270 281 231 225 261 220 222 211 208 222 212 207 218 218 219 219 219 216 215 216 215 216 219 221 226 228 236 239 238
317 276 276 284 317 254 277 283 281 304 324 299 279 282 269 263 273 265 249 258 271 269 220 223 278 228 205 209 235 225 211 205 215 220 220 219 218 218 219 222 221 220 224 227 232 234 234 240 246
300 241 303 293 306 275 61 291 10 15 17 5 346 332 327 325 265 268 259 248 255 259 223 198 258 221 208 205 212 204 217 214 218 220 221 219 219 220 221 225 227 226 228 234 239 241 242 244 248
255 300 292 285 274 281 253 226 17 14 348 340 331 321 314 313 304 260 261 251 234 253 224 182 207 124 214 213 239 224 217 222 219 227 226 224 223 224 226 228 229 231 230 236 241 253 242 246 254
322 305 309 328 233 213 300 202 57 11 333 324 320 311 304 302 289 254 253 244 237 245 211 166 150 155 191 187 233 205 208 223 221 225 229 229 228 225 228 231 234 238 242 242 249 251 256 256 257
348 347 337 1 13 230 343 247 70 354 349 329 314 305 294 287 281 234 212 201 222 195 185 158 173 98 76 89 105 250 195 221 226 231 233 232 229 228 228 230 234 239 243 244 251 256 258 256 251
335 345 344 312 326 318 310 352 134 3 332 341 339 312 292 324 326 348 109 201 202 152 149 142 128 99 114 116 108 111 75 325 248 240 227 226 224 220 220 223 230 235 237 242 253 268 273 278 275
340 341 303 254 239 249 344 2 229 345 348 347 342 40 66 67 77 85 91 94 106 112 133 142 136 115 96 98 103 73 52 353 142 180 165 172 158 173 173 193 226 240 234 237 276 263 268 267 260
341 345 1 349 349 342 64 50 343 343 342 333 341 34 54 63 66 76 86 90 102 117 128 136 126 113 109 105 94 82 73 59 80 103 105 115 106 108 119 95 110 120 102 72 104 102 82 83 85
8 12 345 276 305 345 344 48 356 341 338 329 338 25 38 50 62 77 91 98 106 112 112 114 110 110 105 101 98 90 77 85 87 79 83 84 84 81 89 86 87 77 72 68 64 66 68 68 68
32 7 340 72 344 349 318 65 10 354 336 344 353 15 34 46 59 72 82 93 101 106 106 107 108 105 101 100 99 96 94 93 91 92 89 86 85 85 83 85 82 80 79 77 75 75 76 75 72